User: anonymous   Login
Location: Unspecified
(0.0000°N, 0.0000°E)
Time: 10:03:21
(UTC+00:00)
Language:

STARLINK-30562 - Orbit

View from above orbital plane
View from above orbital plane
View from above satellite
View from above satellite

Ground track
Ground track

The orbit is defined by the following mean orbital elements,

1 58033U          26145.47905928 +.00000000 +00000-0 +10888-3 0 00002
2 58033  53.1598 171.2175 0001107  79.8929 280.2196 15.30191665    04
Epoch (UTC): 25 May 2026 11:29:50
Eccentricity: 0.0001107
inclination: 53.1598°
perigee height: 474 km
apogee height: 476 km
right ascension of ascending node: 171.2175°
argument of perigee: 79.8929°
revolutions per day: 15.30191665
mean anomaly at epoch: 280.2196°

The dashed part of the orbit path shows where the satellite is in the earth's shadow,  

DLR